TimeCST,TemperatureF,Dew PointF,Humidity,Sea Level PressureIn,VisibilityMPH,Wind Direction,Wind SpeedMPH,Gust SpeedMPH,PrecipitationIn,Events,Conditions,WindDirDegrees,DateUTC
12:15 AM,28.4,19.4,69,30.00,10.0,NW,6.9,-,N/A,,Partly Cloudy,320,2012-12-08 06:15:00
12:35 AM,30.2,21.2,69,29.99,10.0,NNW,5.8,-,N/A,,Clear,330,2012-12-08 06:35:00
12:55 AM,30.2,19.4,64,29.99,10.0,NW,3.5,-,N/A,,Scattered Clouds,310,2012-12-08 06:55:00
1:15 AM,28.4,19.4,69,29.98,10.0,NW,5.8,-,N/A,,Partly Cloudy,310,2012-12-08 07:15:00
1:35 AM,28.4,19.4,69,29.98,10.0,WNW,4.6,-,N/A,,Partly Cloudy,300,2012-12-08 07:35:00
1:55 AM,28.4,19.4,69,29.97,10.0,WNW,3.5,-,N/A,,Mostly Cloudy,300,2012-12-08 07:55:00
2:15 AM,28.4,19.4,69,29.97,10.0,NW,4.6,-,N/A,,Partly Cloudy,310,2012-12-08 08:15:00
2:35 AM,26.6,19.4,74,29.97,10.0,NW,5.8,-,N/A,,Clear,310,2012-12-08 08:35:00
2:55 AM,24.8,17.6,74,29.97,10.0,West,5.8,-,N/A,,Clear,280,2012-12-08 08:55:00
3:15 AM,24.8,17.6,74,29.96,10.0,WNW,4.6,-,N/A,,Clear,300,2012-12-08 09:15:00
3:35 AM,21.2,14.0,74,29.95,10.0,WNW,4.6,-,N/A,,Clear,300,2012-12-08 09:35:00
3:55 AM,21.2,15.8,80,29.95,10.0,NW,4.6,-,N/A,,Clear,320,2012-12-08 09:55:00
4:15 AM,23.0,17.6,80,29.95,10.0,NW,5.8,-,N/A,,Clear,320,2012-12-08 10:15:00
4:35 AM,21.2,14.0,74,29.95,10.0,NW,5.8,-,N/A,,Clear,310,2012-12-08 10:35:00
4:55 AM,21.2,15.8,80,29.95,10.0,WNW,5.8,-,N/A,,Partly Cloudy,290,2012-12-08 10:55:00
5:15 AM,21.2,15.8,80,29.95,10.0,NW,6.9,-,N/A,,Scattered Clouds,320,2012-12-08 11:15:00
5:35 AM,24.8,19.4,80,29.94,10.0,NNW,8.1,-,N/A,,Scattered Clouds,330,2012-12-08 11:35:00
5:55 AM,24.8,17.6,74,29.94,10.0,NNW,5.8,-,N/A,,Scattered Clouds,330,2012-12-08 11:55:00
6:15 AM,23.0,17.6,80,29.94,10.0,WNW,4.6,-,N/A,,Clear,290,2012-12-08 12:15:00
6:35 AM,24.8,17.6,74,29.94,10.0,NW,5.8,-,N/A,,Clear,310,2012-12-08 12:35:00
6:55 AM,23.0,17.6,80,29.95,10.0,WNW,5.8,-,N/A,,Clear,300,2012-12-08 12:55:00
7:15 AM,21.2,15.8,80,29.95,9.0,West,4.6,-,N/A,,Clear,270,2012-12-08 13:15:00
7:35 AM,21.2,15.8,80,29.94,10.0,WSW,4.6,-,N/A,,Clear,250,2012-12-08 13:35:00
7:55 AM,19.4,15.8,86,29.94,10.0,NW,4.6,-,N/A,,Clear,310,2012-12-08 13:55:00
8:15 AM,19.4,14.0,80,29.93,10.0,NW,5.8,-,N/A,,Clear,320,2012-12-08 14:15:00
8:35 AM,21.2,17.6,86,29.93,10.0,Calm,Calm,-,N/A,,Clear,0,2012-12-08 14:35:00
8:55 AM,24.8,17.6,74,29.93,10.0,NNW,5.8,-,N/A,,Clear,330,2012-12-08 14:55:00
9:15 AM,28.4,21.2,74,29.93,10.0,NNW,3.5,-,N/A,,Clear,340,2012-12-08 15:15:00
9:35 AM,32.0,23.0,69,29.93,10.0,ENE,4.6,-,N/A,,Clear,70,2012-12-08 15:35:00
9:55 AM,33.8,24.8,70,29.93,10.0,East,3.5,-,N/A,,Clear,90,2012-12-08 15:55:00
10:15 AM,33.8,24.8,70,29.93,10.0,East,5.8,-,N/A,,Clear,90,2012-12-08 16:15:00
10:35 AM,35.6,26.6,70,29.93,10.0,SE,5.8,-,N/A,,Clear,130,2012-12-08 16:35:00
10:55 AM,37.4,26.6,65,29.92,10.0,SE,5.8,-,N/A,,Clear,130,2012-12-08 16:55:00
11:15 AM,37.4,26.6,65,29.91,10.0,SE,6.9,-,N/A,,Clear,130,2012-12-08 17:15:00
11:35 AM,39.2,26.6,61,29.90,10.0,South,6.9,-,N/A,,Clear,170,2012-12-08 17:35:00
11:55 AM,39.2,26.6,61,29.89,10.0,South,6.9,-,N/A,,Clear,180,2012-12-08 17:55:00
12:15 PM,41.0,26.6,57,29.88,10.0,South,6.9,-,N/A,,Clear,190,2012-12-08 18:15:00
12:35 PM,42.8,26.6,53,29.87,10.0,SSE,6.9,-,N/A,,Partly Cloudy,150,2012-12-08 18:35:00
12:55 PM,42.8,24.8,49,29.84,10.0,SSE,8.1,-,N/A,,Scattered Clouds,160,2012-12-08 18:55:00
1:15 PM,44.6,26.6,49,29.83,10.0,SSE,8.1,-,N/A,,Clear,150,2012-12-08 19:15:00
1:35 PM,44.6,24.8,46,29.82,10.0,SSE,10.4,-,N/A,,Partly Cloudy,160,2012-12-08 19:35:00
1:55 PM,46.4,24.8,43,29.80,10.0,South,11.5,-,N/A,,Clear,170,2012-12-08 19:55:00
2:15 PM,44.6,24.8,46,29.78,10.0,SE,11.5,-,N/A,,Clear,130,2012-12-08 20:15:00
2:35 PM,46.4,26.6,46,29.78,10.0,SE,5.8,-,N/A,,Partly Cloudy,140,2012-12-08 20:35:00
2:55 PM,46.4,26.6,46,29.77,10.0,SSE,13.8,17.3,N/A,,Clear,160,2012-12-08 20:55:00
3:15 PM,46.4,26.6,46,29.76,10.0,SSE,15.0,-,N/A,,Clear,150,2012-12-08 21:15:00
3:35 PM,46.4,26.6,46,29.76,10.0,SSE,13.8,-,N/A,,Clear,150,2012-12-08 21:35:00
3:55 PM,46.4,26.6,46,29.76,10.0,SSE,13.8,-,N/A,,Clear,160,2012-12-08 21:55:00
4:15 PM,44.6,26.6,49,29.77,10.0,SSE,11.5,-,N/A,,Clear,160,2012-12-08 22:15:00
4:35 PM,44.6,26.6,49,29.77,10.0,SE,9.2,-,N/A,,Partly Cloudy,140,2012-12-08 22:35:00
4:55 PM,44.6,26.6,49,29.76,10.0,SE,8.1,-,N/A,,Mostly Cloudy,140,2012-12-08 22:55:00
5:15 PM,42.8,26.6,53,29.76,10.0,SE,11.5,-,N/A,,Mostly Cloudy,130,2012-12-08 23:15:00
5:35 PM,41.0,26.6,57,29.76,10.0,SE,9.2,-,N/A,,Scattered Clouds,140,2012-12-08 23:35:00
5:55 PM,37.4,24.8,60,29.76,10.0,SE,8.1,-,N/A,,Mostly Cloudy,130,2012-12-08 23:55:00
6:15 PM,37.4,26.6,65,29.76,10.0,SE,11.5,-,N/A,,Scattered Clouds,130,2012-12-09 00:15:00
6:35 PM,37.4,24.8,60,29.76,10.0,ESE,6.9,-,N/A,,Mostly Cloudy,120,2012-12-09 00:35:00
7:15 PM,35.6,26.6,70,29.77,10.0,SE,9.2,-,N/A,,Overcast,130,2012-12-09 01:15:00
7:35 PM,37.4,26.6,65,29.78,10.0,ESE,4.6,-,N/A,,Overcast,120,2012-12-09 01:35:00
7:55 PM,35.6,26.6,70,29.78,10.0,East,5.8,-,N/A,,Mostly Cloudy,90,2012-12-09 01:55:00
8:15 PM,35.6,24.8,65,29.78,10.0,East,6.9,-,N/A,,Partly Cloudy,90,2012-12-09 02:15:00
8:35 PM,33.8,24.8,70,29.79,10.0,ESE,6.9,-,N/A,,Clear,110,2012-12-09 02:35:00
8:55 PM,33.8,24.8,70,29.80,10.0,ENE,4.6,-,N/A,,Clear,60,2012-12-09 02:55:00
9:15 PM,30.2,24.8,80,29.80,10.0,ENE,4.6,-,N/A,,Clear,60,2012-12-09 03:15:00
9:35 PM,33.8,26.6,75,29.81,10.0,East,4.6,-,N/A,,Clear,80,2012-12-09 03:35:00
9:55 PM,30.2,21.2,69,29.82,10.0,NE,3.5,-,N/A,,Clear,50,2012-12-09 03:55:00
10:15 PM,28.4,24.8,86,29.82,10.0,Calm,Calm,-,N/A,,Clear,0,2012-12-09 04:15:00
10:35 PM,28.4,23.0,80,29.84,10.0,West,3.5,-,N/A,,Clear,260,2012-12-09 04:35:00
10:55 PM,30.2,24.8,80,29.84,10.0,Calm,Calm,-,N/A,,Clear,0,2012-12-09 04:55:00
11:15 PM,30.2,24.8,80,29.85,10.0,NW,5.8,-,N/A,,Scattered Clouds,320,2012-12-09 05:15:00
11:35 PM,30.2,24.8,80,29.85,10.0,WNW,4.6,-,N/A,,Overcast,290,2012-12-09 05:35:00
11:55 PM,30.2,24.8,80,29.86,10.0,WNW,5.8,-,N/A,,Overcast,290,2012-12-09 05:55:00